Dewa Poker, Daftar Poker99, Poker88, Bandar Kartu, Bandar Ceme, Agen Poker Terpercaya, Agen Poker Indonesia Terpercaya

Jackpot

Texas Poker Multi Jackpot System

Kini Telah hadir Jackpot SUPER ROYAL FLUSH

Kini Telah hadir Jackpot 2000 (khusus table VIP keatas).

Ikutilah global jackpot yang tersedia di system kami, dengan system jackpot terbaru dan pertama di indonesia, anda dapat membeli jackpot dengan harga 100 rupiah saja dan menangkan hadiahnya hingga puluhan juta rupiah.

Jackpot bukanlah suatu keharusan untuk dibeli, namun kami memberikan suatu fitur tambahan untuk member tercinta dari www.jaripoker.com.

Terdapat tiga pilihan harga jackpot yang bisa anda beli yaitu :100,500,1000 dan 2000(khusus table VIP Keatas) rupiah.

Hadiah dari Multi jackpot system www.jaripoker.com

  1. full house x 10 harga jackpot yang anda beli.
      (contoh:anda membeli 1000 maka:1000 X10 = 10.000)
  2. four of kind x 250 harga jackpot yang anda beli
      (contoh:anda membeli 1000 maka:1000 X250 = 250.000)
  3. Straight flush x 1200
      (contoh:anda membeli 1000 maka:1000 X1200 = 1.200.000)
  4. Royal flush x 10000 harga jackpot yang anda beli
      (contoh:anda membeli 1000 maka:1000 X10000 = 10.000.000)
  5. SUPER ROYAL FLUSH x 30000 harga jackpot yang anda beli
      (contoh:anda membeli 1000 maka:1000 X30000 = 30.000.000)

Kondisi kartu

  1. full house adalah kondisi kartu dimana kartu anda dan kartu tengah dengan total 7 kartu bisa mendapatkan nilai 5 kartu dengan kombinasi 1 tris(three of kind) dan 1 pair, contoh 3 kartu 10 dan 2 kartu 5
  2. Four of kind adalah kondisi kartu dimana kartu anda dan kartu tengah dengan total 7 kartu bisa mendapatkan nilai 5 kartu dengan kombinasi 4 kartu yang sama jumlah dan 1 kartu apapun juga contoh anda mendapatkan 4 buah kartu angka 3 dan 1 kartu apapun.
  3. Staright flush adalah kondisi kartu dimana kartu anda dan kartu tengah dengan total 7 kartu bisa mendapatkan nilai 5 kartu dengan kombinasi seri / staright dengan kembang yang sama contoh : urutan kartu dari angka 5, 6, 7, 8 , 9 10 dengan kembang yg sama misalnya as hati
  4. Royal flush adalah kondisi kartu dimana kartu anda dan kartu tengah dengan total 7 kartu bisa mendapatkan nilai 5 kartu dengan kombinasi seri / staright dengan kembang yang sama tetapi kartu tersebut haruslah dimulai dari 10. contoh 10, Queen, Jack, King dan aces dengan kembang yang sama
  5. Super Royal flush adalah kondisi kartu dimana Kedua kartu anda digabung dengan 3 kartu pertama meja haruslah royal flush. contoh kartu anda 10,Queen kembang sama dan 3 kartu pertama meja adalah Jack, King dan aces dengan kembang yang sama

Demikian adalah penjelasan dari Multi Jackpot www.jaripoker.com terima kasih dan selamat bermain salam hoki dari kami

Texas Poker Jackpot Winner

TOP SUPER ROYAL FLUSH
No.TanggalNamaPriceWin
121/11 10:49RAHMATWJ12Super Royal flush6,000,000
221/11 09:47LIANI17Super Royal flush15,000,000
321/11 04:38BLACKMBA01Super Royal flush15,000,000
421/11 04:11DWTSPED99Super Royal flush6,000,000
521/11 02:06KODAM09Super Royal flush15,000,000
TOP ROYAL FLUSH
No.TanggalNamaPriceWin
121/11 11:08JPBOS89Royal flush2,000,000
221/11 10:50D91490A9Royal flush2,000,000
321/11 10:36KAPAL1985Royal flush1,000,000
421/11 10:32BOJEN99Royal flush5,000,000
521/11 10:24AAAABMI989Royal flush20,000,000
TOP STRAIGHT FLUSH
No.TanggalNamaPriceWin
121/11 11:09MYLANDStraight Flush240,000
221/11 11:08M1RIDH70OLStraight Flush600,000
321/11 11:08JAVVARA10Straight Flush600,000
421/11 11:08CHASCHAS8Straight Flush1,200,000
521/11 11:07OPAY58Straight Flush1,200,000
LATEST JACKPOT
No.TanggalNamaPriceWin
121/11 11:10SUPERWEFull House5,000
221/11 11:10VEYRON01Full House5,000
321/11 11:10DG_UPAFull House5,000
421/11 11:10LADIMANFull House1,000
521/11 11:10T4D0014294Full House2,000
621/11 11:10N4G4_25Full House10,000
721/11 11:10RECEL99XFull House1,000
821/11 11:10FHANDI23Full House2,000
921/11 11:10ONYON67Full House5,000
1021/11 11:10JULES919Full House2,000
1121/11 11:10MAJESTY777Full House2,000
1221/11 11:10STRIKE_BOLFull House2,000
1321/11 11:10MRICA200Full House5,000
1421/11 11:10DABOX99Full House1,000
1521/11 11:10KODOKMBBFull House2,000
1621/11 11:10NJH505Full House1,000
1721/11 11:10WAROAZAFull House1,000
1821/11 11:10OSLEM66Full House2,000
1921/11 11:10QZ3USI5VH3Full House1,000
2021/11 11:10ARIBOY00Full House1,000
2121/11 11:10IWENK90Full House2,000
2221/11 11:09FIVEKARTUFull House500
2321/11 11:09STEMPELFull House20,000
2421/11 11:09BATIKMDRIMFull House2,000
2521/11 11:09BREWOK2424Full House20,000
2621/11 11:09BISING_95Full House10,000
2721/11 11:09ADUY1986Full House1,000
2821/11 11:09STE7OKFull House10,000
2921/11 11:09V4ND4M399Full House2,000
3021/11 11:09LOTBO_LOTFull House1,000
3121/11 11:09TAZM4N14Full House2,000
3221/11 11:09HOKKI0905Full House2,000
3321/11 11:09TOET97Full House5,000
3421/11 11:09BUNGAIHURFull House10,000
3521/11 11:09MAW1234Full House2,000
3621/11 11:09LULA03Full House10,000
3721/11 11:09S96WIRANAGAFull House10,000
3821/11 11:09GUNDU8888Four Of A Kind250,000
3921/11 11:09RAJADAUN12Full House5,000
4021/11 11:09ARDIANAJAFull House5,000
4121/11 11:09MIRZA2015Full House10,000
4221/11 11:09KOPLENG999Full House5,000
4321/11 11:09DALIKK1Full House1,000
4421/11 11:09GUNUNGGFull House10,000
4521/11 11:09DULNYOT9Full House5,000
4621/11 11:09ENGTIWIFour Of A Kind50,000
4721/11 11:09SIAMCAY91Full House10,000
4821/11 11:09DEOIY11Full House1,000
4921/11 11:09FAUSTNVAFull House2,000
5021/11 11:09MYLANDStraight Flush240,000

Domino Multi Jackpot System

Ikutilah global jackpot yang tersedia di system kami, dengan system jackpot terbaru dan pertama di indonesia, anda dapat membeli jackpot dengan harga 100 rupiah saja dan menangkan hadiahnya hingga puluhan juta rupiah.

Jackpot bukanlah suatu keharusan untuk dibeli, namun kami memberikan suatu fitur tambahan untuk member tercinta dari www.jaripoker.com.

Terdapat tiga pilihan harga jackpot yang bisa anda beli yaitu :100,500 dan 1000 rupiah.

Hadiah dari Multi jackpot system www.jaripoker.com

  1. Murni Kecil x 50 harga jackpot yang anda beli.
      (contoh:anda membeli 1000 maka:1000 X 50 = 50.000)
  2. Murni Besar x 50 harga jackpot yang anda beli
      (contoh:anda membeli 1000 maka:1000 X 50 = 50.000)
  3. BALAK x 100 harga jackpot yang anda beli
      (contoh:anda membeli 1000 maka:1000 X 100 = 100.000)
  4. ENAM DEWA x 6666 harga jackpot yang anda beli
      (contoh:anda membeli 1000 maka:1000 X 6666 = 6.666.000)

Demikian adalah penjelasan dari Multi Jackpot www.jaripoker.com terima kasih dan selamat bermain salam hoki dari kami

Domino Jackpot Winner

TOP ENAM DEWA
No.TanggalNamaPriceWin
121/11 10:42ENOLIAmurni enam6,666,000
221/11 09:19KES_RAKmurni enam6,666,000
321/11 08:51B72A8394murni enam666,600
421/11 08:45MAGNET34murni enam6,666,000
521/11 08:19UJABHIDENGmurni enam6,666,000
TOP BALAK
No.TanggalNamaPriceWin
121/11 11:09SIBOLANGXMbalak100,000
221/11 11:08G1BUDBUDbalak50,000
321/11 11:02JOB0N99balak10,000
421/11 11:01PE23RIbalak50,000
521/11 10:56ANDINASIRbalak10,000
LATEST JACKPOT
No.TanggalNamaPriceWin
121/11 11:10BIGBOSCLUBmurni kecil50,000
221/11 11:09HB99murni kecil25,000
321/11 11:09SIBOLANGXMbalak100,000
421/11 11:08AEDIANSYAHmurni besar50,000
521/11 11:08G1BUDBUDbalak50,000
621/11 11:08LAJUSIMmurni besar50,000
721/11 11:07YOGA1AOmurni kecil5,000
821/11 11:06HAREF488murni besar50,000
921/11 11:02JOB0N99balak10,000
1021/11 11:01PE23RIbalak50,000
1121/11 11:00WITRA187murni kecil50,000
1221/11 11:00LAPYU01murni kecil5,000
1321/11 10:59PORCIFCmurni besar25,000
1421/11 10:58JHOTYmurni besar5,000
1521/11 10:58EXPEDIX99lucky9925,000
1621/11 10:56ANDINASIRbalak10,000
1721/11 10:56PUTRAHADILbalak50,000
1821/11 10:55ZKN7W08BLNmurni kecil50,000
1921/11 10:54DEKSANGKEbalak10,000
2021/11 10:54CAKMIN7murni kecil50,000
2121/11 10:53LCPN106XQAbalak50,000
2221/11 10:53LCPN106XQAbalak50,000
2321/11 10:51BOLOK75murni besar50,000
2421/11 10:48BOLANG227murni besar5,000
2521/11 10:47YUGC73K8KYlucky9910,000
2621/11 10:46UKRO420murni kecil25,000
2721/11 10:46HENDRA866lucky9950,000
2821/11 10:46BONARDO10balak100,000
2921/11 10:44T7W0L344B1murni kecil50,000
3021/11 10:43MASHARJOmurni kecil25,000
3121/11 10:42WAJACKlucky992,500
3221/11 10:42QNET987murni besar25,000
3321/11 10:42ENOLIAmurni enam6,666,000
3421/11 10:42AWEH9090murni kecil50,000
3521/11 10:42CHAN299murni besar25,000
3621/11 10:42WAONE90murni besar50,000
3721/11 10:41EFFIbalak10,000
3821/11 10:40JAWIImurni besar5,000
3921/11 10:39RHONY001murni besar5,000
4021/11 10:38B0NC33LLbalak100,000
4121/11 10:36WAONE90murni besar50,000
4221/11 10:35KPN72murni besar50,000
4321/11 10:35JURS87lucky9950,000
4421/11 10:34L1NDU4JI_balak50,000
4521/11 10:34COKREKKbalak100,000
4621/11 10:33HER4KL3Smurni besar5,000
4721/11 10:33ENOLIAmurni besar50,000
4821/11 10:32GAYUS19murni kecil50,000
4921/11 10:32PIRAIBAmurni kecil50,000
5021/11 10:32THEMITbalak100,000

Ceme Multi Jackpot System

Jackpot dilihat dari gabungan kartu pemain dengan kartu bandar. Bandar harus membeli jackpot sebanyak jumlah player yang sedang duduk. Sebagai contoh bila terdapat 3 pemain duduk bermain, dan bandar memutuskan untuk membeli jackpot Rp 1.000, maka pada periode tersebut bandar akan membeli jackpot sebanyak 3xRp1.000 = Rp3.000.

Jackpot bukanlah suatu keharusan untuk dibeli, namun kami memberikan suatu fitur tambahan untuk member tercinta dari www.jaripoker.com.

Terdapat tiga pilihan harga jackpot yang bisa anda beli yaitu :100,500 dan 1000 rupiah.

Hadiah dari Multi jackpot system www.jaripoker.com

  1. Murni Kecil x 50 harga jackpot yang anda beli.
      (contoh:anda membeli 1000 maka:1000 X 50 = 50.000)
  2. Murni Besar x 50 harga jackpot yang anda beli
      (contoh:anda membeli 1000 maka:1000 X 50 = 50.000)
  3. BALAK x 200 harga jackpot yang anda beli
      (contoh:anda membeli 1000 maka:1000 X 200 = 200.000)
  4. ENAM DEWA x 6666 harga jackpot yang anda beli
      (contoh:anda membeli 1000 maka:1000 X 6666 = 6.666.000)

Demikian adalah penjelasan dari Multi Jackpot www.jaripoker.com terima kasih dan selamat bermain salam hoki dari kami

Ceme Jackpot Winner

TOP ENAM DEWA
No.TanggalNamaPriceWin
121/11 11:09YETRI20murni enam6,666,000
221/11 11:09GIBUL01murni enam6,666,000
321/11 10:57ETEKEBLEKmurni enam666,600
421/11 10:43KUDU1JUTAmurni enam6,666,000
521/11 10:28CHOPPER1murni enam666,600
TOP BALAK
No.TanggalNamaPriceWin
121/11 11:07RENES89balak200,000
221/11 11:06CRABAKbalak100,000
321/11 11:06SUKUR_1984balak200,000
421/11 11:06CRABAKbalak100,000
521/11 11:06DANA_378balak200,000
LATEST JACKPOT
No.TanggalNamaPriceWin
121/11 11:10ENTEK12murni kecil5,000
221/11 11:10CAKMAMAT12murni besar50,000
321/11 11:10ALMYRA06murni kecil50,000
421/11 11:10KISUT87murni kecil50,000
521/11 11:10EPOY777murni besar5,000
621/11 11:09YETRI20murni enam6,666,000
721/11 11:09GIBUL01murni enam6,666,000
821/11 11:09ONAM3murni besar5,000
921/11 11:09ZAKY009murni besar5,000
1021/11 11:09KADULAGmurni besar50,000
1121/11 11:09BAGUS081murni besar50,000
1221/11 11:09NG67murni kecil5,000
1321/11 11:09NGISISmurni kecil50,000
1421/11 11:09BROWEEmurni kecil5,000
1521/11 11:08JAMBRONG3Qmurni besar50,000
1621/11 11:08SANDYLIM88murni besar5,000
1721/11 11:08ENOLQQmurni kecil25,000
1821/11 11:08PBV063murni besar50,000
1921/11 11:08REKEN1922murni kecil5,000
2021/11 11:08SAORI15murni besar50,000
2121/11 11:08JUT9090murni besar25,000
2221/11 11:08LB883937murni besar50,000
2321/11 11:07RUBICOONmurni besar50,000
2421/11 11:07YUDI2525murni besar50,000
2521/11 11:07ALHAQIE888murni kecil50,000
2621/11 11:07CURUCUG28murni besar25,000
2721/11 11:07HOLISON777murni kecil25,000
2821/11 11:07NAYSIA111murni kecil5,000
2921/11 11:07R17272X26PKJA1Umurni besar50,000
3021/11 11:07ADL09murni besar5,000
3121/11 11:07PBV063murni kecil50,000
3221/11 11:07DAZA7788murni kecil25,000
3321/11 11:07ZENK45murni kecil50,000
3421/11 11:07GADGET08murni kecil50,000
3521/11 11:07RENES89balak200,000
3621/11 11:07JUT9090murni kecil25,000
3721/11 11:07RIANALmurni kecil50,000
3821/11 11:07ETOLOPER26murni kecil50,000
3921/11 11:06DIO1983murni kecil25,000
4021/11 11:06ADEK190820murni kecil5,000
4121/11 11:06DELLA004murni kecil5,000
4221/11 11:06CRABAKbalak100,000
4321/11 11:06SUKUR_1984balak200,000
4421/11 11:06CRABAKbalak100,000
4521/11 11:06DANA_378balak200,000
4621/11 11:06BERE8510murni besar50,000
4721/11 11:06RAFELEFARbalak200,000
4821/11 11:06NABILAAJAmurni besar25,000
4921/11 11:06XZIQIZ52KLmurni kecil25,000
5021/11 11:06ACHMAD2688murni kecil50,000